• Join FlightAware (Why Join?)
  • Login
  • US Flag GB Flag 
10:10 EST


 

Airport Tracker/Info


-or-


 

Live Flight TrackerFlight Track Log ✈ N500CD ✈ 04-Jun-2014 ✈ KRUQ - KLCQ

Flight Track Log - Related Links

Times and Time Zones

All times are in EDT time to prevent confusion due to time zone crossing. See the N500CD flight status page for this flight to view local times or setup timezone preferences in your user account.

Time Position Orientation Groundspeed Altitude Reporting Facility
EDT Latitude Longitude Course Direction KTS MPH feet Rate Location/Type
15:21 35.6094 -80.5189 174° South 151 174 2,500  Level Atlanta Center
15:22 35.5675 -80.5131 174° South 159 183 4,100 1,875 Climbing Atlanta Center
15:23 35.5339 -80.5092 175° South 212 244 5,500 2,317 Climbing Atlanta Center
15:24 35.4836 -80.4986 170° South 212 244 8,000 2,050 Climbing Atlanta Center
15:25 35.4333 -80.4906 173° South 195 224 9,600 1,500 Climbing Atlanta Center
15:26 35.3817 -80.5108 198° South 190 219 11,000 1,400 Climbing Atlanta Center
15:27 35.3261 -80.5361 200° South 203 234 12,400 1,400 Climbing Atlanta Center
15:28 35.2664 -80.5639 201° Southwest 221 254 13,800 1,350 Climbing Atlanta Center
15:29 35.2044 -80.5869 197° South 231 266 15,100 1,300 Climbing Atlanta Center
15:30 35.1467 -80.6122 200° South 231 266 16,400 1,250 Climbing Atlanta Center
15:31 35.0850 -80.6403 200° South 231 266 17,600 1,188 Climbing Atlanta Center
15:33 34.9356 -80.7022 199° South 225 259 20,300 1,157 Climbing Jacksonville Center
15:34 34.8714 -80.7267 197° South 231 266 21,400 1,150 Climbing Jacksonville Center
15:35 34.8092 -80.7561 201° Southwest 236 272 22,600 1,100 Climbing Jacksonville Center
15:36 34.7450 -80.7803 197° South 246 283 23,600 1,000 Climbing Jacksonville Center
15:37 34.6789 -80.8097 200° South 246 283 24,600 1,000 Climbing Jacksonville Center
15:38 34.6125 -80.8417 202° Southwest 253 291 25,600 950 Climbing Jacksonville Center
15:39 34.5442 -80.8658 196° South 253 291 26,500 950 Climbing Jacksonville Center
15:40 34.4756 -80.8928 198° South 253 291 27,500 950 Climbing Jacksonville Center
15:41 34.4094 -80.9194 198° South 258 297 28,400 850 Climbing Jacksonville Center
15:42 34.3367 -80.9486 198° South 267 307 29,200 750 Climbing Jacksonville Center
15:43 34.2725 -80.9778 201° Southwest 267 307 29,900 400 Climbing Jacksonville Center
15:44 34.2000 -81.0069 198° South 267 307 30,000 50 Climbing Jacksonville Center
15:45 34.1150 -81.0389 197° South 289 333 30,000  Level Jacksonville Center
15:46 34.0319 -81.0758 200° South 309 356 30,000  Level Jacksonville Center
15:47 33.9469 -81.1100 198° South 319 367 30,000  Level Jacksonville Center
15:48 33.8578 -81.1469 199° South 331 381 30,000  Level Jacksonville Center
15:49 33.7725 -81.1811 198° South 331 381 30,000  Level Jacksonville Center
15:50 33.6814 -81.2178 199° South 336 387 30,000  Level Jacksonville Center
15:51 33.5961 -81.2544 200° South 336 387 30,000  Level Jacksonville Center
15:52 33.5069 -81.2908 199° South 336 387 30,000  Level Jacksonville Center
15:53 33.4197 -81.3272 199° South 336 387 30,000  Level Jacksonville Center
15:54 33.3283 -81.3611 197° South 342 394 30,000  Level Jacksonville Center
15:55 33.2431 -81.3925 197° South 342 394 30,000  Level Jacksonville Center
15:56 33.1539 -81.4336 201° Southwest 342 394 30,000  Level Jacksonville Center
15:57 33.0644 -81.4672 197° South 342 394 30,000  Level Jacksonville Center
15:58 32.9731 -81.5058 200° South 342 394 30,000  Level Jacksonville Center
15:59 32.8858 -81.5394 198° South 342 394 30,000  Level Jacksonville Center
16:00 32.8006 -81.5728 198° South 347 399 30,000  Level Jacksonville Center
16:01 32.7133 -81.6061 198° South 342 394 30,000  Level Jacksonville Center
16:02 32.6156 -81.6469 199° South 337 388 30,000  Level Jacksonville Center
16:03 32.5239 -81.6828 198° South 342 394 30,000  Level Jacksonville Center
16:04 32.4450 -81.7133 198° South 347 399 30,000  Level Jacksonville Center
16:05 32.3408 -81.7542 198° South 342 394 30,000  Level Jacksonville Center
16:06 32.2597 -81.7844 198° South 342 394 30,000 -450 Level Jacksonville Center
16:07 32.1536 -81.8275 199° South 358 412 29,100 -900 Descending Jacksonville Center
16:08 32.0581 -81.8656 199° South 363 418 28,200 -550 Descending Jacksonville Center
16:09 31.9686 -81.8983 197° South 368 423 28,000 -100 Descending Jacksonville Center
16:10 31.8644 -81.9386 198° South 363 418 28,000  Level Jacksonville Center
16:11 31.7831 -81.9686 197° South 357 411 28,000  Level Jacksonville Center
16:12 31.6811 -82.0064 198° South 357 411 28,000 -50 Level Jacksonville Center
16:13 31.5875 -82.0486 201° Southwest 362 417 27,900 -500 Descending Jacksonville Center
16:14 31.4917 -82.0861 198° South 369 425 27,000 -950 Descending Jacksonville Center
16:15 31.3917 -82.1258 199° South 363 418 26,000 -1,050 Descending Jacksonville Center
16:16 31.2958 -82.1631 198° South 370 426 24,900 -1,200 Descending Jacksonville Center
16:17 31.2022 -82.1956 197° South 364 419 23,600 -1,250 Descending Jacksonville Center
16:18 31.1103 -82.2300 198° South 364 419 22,400 -1,200 Descending Jacksonville Center
16:19 31.0186 -82.2647 198° South 359 413 21,200 -1,200 Descending Jacksonville Center
16:20 30.9269 -82.2992 198° South 359 413 20,000 -1,200 Descending Jacksonville Center
16:21 30.8375 -82.3336 198° South 354 407 18,800 -1,350 Descending Jacksonville Center
16:22 30.7478 -82.3681 198° South 342 394 17,300 -1,250 Descending Jacksonville Center
16:23 30.6581 -82.3975 196° South 342 394 16,300 -1,700 Descending Jacksonville Center
16:24 30.5725 -82.4317 199° South 342 394 13,900 -2,650 Descending Jacksonville Center
16:25 30.4956 -82.4633 200° South 327 376 11,000 -3,000 Descending Jacksonville Center
16:26 30.4225 -82.4878 196° South 299 344 7,900 -2,900 Descending Jacksonville Center
16:27 30.3517 -82.5097 195° South 283 326 5,200 -2,750 Descending Jacksonville Center
16:28 30.2847 -82.5244 191° South 263 303 2,400 -2,050 Descending Jacksonville Center
16:29 30.2222 -82.5319 186° South 244 281 1,100 -900 Descending Jacksonville Center
16:30 30.1847 -82.5369 187° South 215 247 600 -500 Descending Jacksonville Center
16:33 30.1667 -82.5667 139° Southeast  Level FlightAware Approximate